Wetbulb
56.18 55.02 54.89 55.15 54.97 54.70 54.30 54.65 55.66 54.69 54.93 55.16 55.83 55.40 54.48 53.22 52.91 53.29 53.31 52.92 53.33 53.80
53.53 53.82 54.54 55.24 56.43 54.64 54.48 56.42 54.81 55.36 54.88 55.86 55.81 55.15 53.42 53.23 52.16 52.60 52.73 52.97 53.12 52.66
52.18 53.50 53.81 54.73 54.76 54.56 54.70 55.14 55.72 55.11 54.61 55.46 54.63 53.93 52.94 53.35 53.07 52.02 53.31 54.12 52.63 53.13
50.56 51.88 52.32 52.72 53.32 53.73 52.81 53.79 53.83 54.99 55.14 54.98 53.55 52.38 50.66 49.40 51.61 51.83 51.59 52.31 52.65 51.98
47.97 49.07 49.26 49.80 50.70 51.35 51.26 52.01 52.33 52.88 53.25 53.58 53.51 51.79 49.09 48.71 50.89 50.76 50.93 51.31 50.20 49.44
45.08 46.11 46.56 48.31 49.27 50.23 50.39 51.03 50.91 52.44 51.59 51.84 50.96 49.95 49.60 50.13 50.30 50.51 50.77 49.99 49.00 48.65
42.94 44.35 45.73 47.43 48.91 49.13 49.47 49.66 50.80 51.60 51.67 51.59 50.62 49.98 50.09 49.91 48.80 48.67 49.84 47.66 48.70 48.20
43.06 43.52 44.45 45.18 46.22 48.34 50.77 51.67 52.14 51.75 50.75 50.28 49.39 49.31 47.83 48.54 47.85 47.04 47.49 48.11 47.86 47.73
42.61 43.22 44.30 45.25 47.53 48.61 48.87 48.90 48.66 48.37 48.10 46.80 46.97 46.99 48.49 49.04 46.24 47.76 48.62 46.88 46.98 47.02
42.19 42.78 43.57 46.41 46.58 45.80 45.33 45.31 45.16 43.73 45.04 44.46 44.86 46.64 46.37 47.81 46.19 50.07 48.01 47.29 46.41 46.68
42.48 43.16 44.06 44.09 44.07 44.58 45.80 45.06 43.41 42.66 43.52 44.07 45.94 45.65 45.05 46.57 48.37 47.29 47.67 48.65 49.03 46.61
42.57 42.49 43.51 43.34 43.41 41.99 41.89 42.98 45.75 45.68 46.24 45.37 44.11 43.66 44.99 45.46 45.12 44.15 43.85 44.64 45.96 46.57
43.34 43.24 42.91 43.74 43.16 44.03 44.96 44.45 43.92 43.08 43.33 43.84 42.43 42.50 42.97 44.60 44.61 43.37 43.73 44.54 44.65 44.01
42.41 42.14 42.41 41.51 44.14 44.11 43.17 42.71 41.82 41.44 42.05 42.67 43.06 42.52 42.16 42.94 44.02 43.04 42.79 43.00 43.27 43.91
MSLP
1015.42 1015.48 1015.66 1015.77 1015.81 1016.00 1015.98 1015.59 1015.55 1015.60 1015.50 1015.37 1015.30 1015.18 1015.26 1015.60 1015.59 1015.46 1015.31 1015.30 1014.92 1015.32
1016.27 1016.13 1015.88 1015.58 1015.33 1015.57 1015.65 1015.41 1015.28 1015.14 1015.01 1015.15 1015.11 1015.34 1015.10 1015.12 1015.14 1015.06 1015.20 1014.90 1014.84 1014.50
1017.11 1016.53 1016.05 1015.69 1015.44 1015.23 1015.05 1014.97 1014.64 1014.43 1014.44 1014.80 1015.02 1015.39 1014.98 1014.76 1014.45 1014.82 1014.65 1014.39 1014.48 1014.24
1017.34 1016.86 1016.32 1015.96 1015.67 1015.32 1015.06 1014.81 1014.46 1014.35 1014.46 1014.27 1014.25 1014.67 1014.61 1014.49 1014.34 1014.43 1014.26 1013.87 1013.99 1014.42
1017.29 1016.85 1016.54 1016.15 1015.67 1015.32 1014.95 1014.61 1014.39 1014.20 1014.09 1014.09 1014.14 1014.02 1013.95 1014.22 1014.35 1014.37 1014.02 1013.68 1013.49 1013.86
1017.31 1016.82 1016.40 1015.95 1015.51 1015.06 1014.72 1014.50 1014.27 1013.92 1013.87 1013.77 1013.72 1013.75 1013.84 1013.89 1014.01 1013.85 1013.77 1013.39 1013.11 1013.49
1017.07 1016.67 1016.28 1015.86 1015.34 1014.76 1014.27 1014.08 1013.91 1013.61 1013.49 1013.46 1013.64 1013.77 1013.49 1013.36 1013.41 1013.57 1013.48 1013.23 1013.01 1013.52
1016.62 1016.21 1015.83 1015.44 1014.87 1014.33 1013.87 1013.40 1013.64 1013.52 1013.88 1013.61 1013.43 1013.56 1013.28 1013.00 1013.10 1013.25 1013.19 1013.21 1013.22 1013.58
1016.28 1015.82 1015.32 1014.96 1014.36 1013.86 1013.60 1013.71 1013.72 1013.65 1013.47 1013.28 1013.21 1013.05 1012.94 1012.87 1012.84 1012.72 1012.75 1013.15 1013.29 1013.72
1015.93 1015.45 1014.99 1014.47 1014.32 1014.32 1013.79 1013.86 1013.80 1013.59 1013.28 1013.07 1013.00 1012.88 1012.80 1012.56 1012.40 1012.18 1012.33 1012.89 1013.44 1013.45
1015.76 1015.27 1014.74 1014.44 1014.24 1014.08 1013.93 1014.04 1013.96 1013.65 1013.24 1013.00 1012.84 1012.73 1012.47 1012.29 1012.22 1012.12 1012.71 1012.91 1013.39 1013.85
1015.64 1015.27 1014.84 1014.59 1014.42 1014.44 1014.33 1014.28 1014.02 1013.77 1013.34 1013.19 1013.06 1012.60 1012.47 1012.38 1012.57 1012.83 1013.19 1013.47 1013.83 1014.19
1015.66 1015.35 1015.12 1014.95 1014.82 1014.65 1014.53 1014.45 1014.39 1014.32 1014.09 1013.89 1013.65 1013.24 1013.11 1013.20 1013.16 1013.46 1014.09 1014.16 1014.63 1014.62
1015.81 1015.55 1015.31 1015.24 1015.02 1014.78 1014.84 1014.92 1014.98 1014.88 1014.74 1014.48 1014.37 1014.38 1014.26 1014.27 1014.26 1014.33 1014.80 1014.89 1014.88 1014.73
Wind_Speed
4 3 2 3 3 4 4 4 6 5 4 2 0 1 0 2 3 4 4 7 5 6
7 5 3 6 5 4 4 4 5 4 3 2 1 3 2 2 3 4 4 5 6 5
7 6 6 6 3 2 2 2 4 3 2 3 3 4 2 1 3 2 3 5 6 5
7 7 6 5 5 4 2 2 1 2 4 4 5 3 1 2 3 4 5 4 3 7
7 7 7 7 6 5 6 5 5 6 4 5 5 2 1 2 4 6 5 5 3 5
7 7 7 8 7 7 6 6 6 5 4 2 2 2 2 3 4 4 5 2 2 3
7 7 7 8 10 9 7 6 7 6 5 3 3 4 4 3 3 4 4 2 4 2
7 7 7 8 11 9 8 5 6 3 5 5 3 5 5 4 4 4 2 3 3 2
9 10 8 6 9 6 4 4 2 2 2 7 5 8 8 5 4 4 7 6 4 1
10 7 8 4 4 7 5 4 5 6 5 5 6 7 5 7 4 5 9 8 5 3
8 8 5 4 4 4 2 3 4 6 6 6 3 6 6 5 1 7 5 5 5 6
7 8 4 4 4 3 3 3 4 5 6 4 5 9 5 10 9 11 11 10 8 4
6 5 4 4 4 3 3 3 4 6 7 11 8 15 14 8 8 12 8 8 4 9
6 5 3 4 3 3 5 6 7 8 8 10 10 12 16 14 8 8 7 4 4 3
Wind_Direction
136 162 177 198 191 209 226 199 191 182 167 172 168 353 338 296 287 279 277 283 273 274
353 350 289 230 193 205 227 218 217 202 194 237 248 273 230 232 302 336 294 286 283 264
346 332 323 336 289 233 234 262 219 193 214 250 283 270 226 307 358 324 305 314 295 290
336 331 336 326 300 282 281 289 343 314 271 238 218 215 25 352 331 320 299 316 339 299
323 328 322 311 301 293 275 272 271 280 282 276 250 166 92 325 297 289 301 282 264 284
295 291 294 295 287 286 282 278 277 263 230 194 153 177 224 217 274 294 294 276 40 340
284 284 287 291 289 271 261 261 255 239 233 243 277 274 268 243 270 288 289 87 80 340
275 272 273 283 286 291 262 261 287 7 330 306 314 273 263 258 261 263 141 111 83 236
301 291 280 289 301 306 360 354 319 257 232 277 286 281 254 258 270 257 159 158 120 219
301 295 293 286 6 316 332 318 296 300 292 281 269 272 301 301 278 259 146 151 163 90
312 315 308 324 315 313 358 323 317 313 304 290 309 337 314 309 115 83 92 150 150 106
317 310 324 337 10 351 335 346 10 2 3 20 360 340 95 94 90 83 68 63 68 113
319 3 7 19 17 354 18 44 45 41 33 45 47 51 56 68 89 83 78 64 68 69
339 336 348 338 352 9 58 61 60 60 50 56 57 59 58 51 68 79 68 72 90 75